Leuchars, United Kingdom

9:11 AM GMT on January 22, 2018 (GMT +0000)
Leuchars Air Base

Weather History for EGQL - August, 2013

Change the Weather History Date:

Thursday, August 8, 2013

  Actual Average Record
Temperature  
Mean Temperature 58 °F -  
Max Temperature 64 °F 62 °F 78 °F (1997)
Min Temperature 52 °F 49 °F 44 °F (2005)
Degree Days  
Heating Degree Days 7    
Growing Degree Days 8 (Base 50)    
Moisture  
Dew Point 55 °F    
Average Humidity 86    
Maximum Humidity 100    
Minimum Humidity 64    
Precipitation  
Precipitation 0.00 in - - ()
Sea Level Pressure  
Sea Level Pressure 30.01 in    
Wind  
Wind Speed 4 mph ()    
Max Wind Speed 14 mph    
Max Gust Speed -    
Visibility 5.4 miles    
Events      
Averages and records for this station are not official NWS values.
T = Trace of Precipitation, MM = Missing Value Source: Averaged Metar Reports

Daily Weather History Graph

Daily Weather History Graph

Search for Another Location

Airport or City:

Trip Planner

Search our weather history database for the weather conditions in past years. The results will help you decide how hot, cold, wet, or windy it might be!

Date:

Astronomy

Aug. 08, 2013 Rise Set
Actual Time 5:27 AM BST 9:05 PM BST
Civil Twilight 4:40 AM BST 9:51 PM BST
Nautical Twilight 3:34 AM BST 10:56 PM BST
Astronomical Twilight 1:49 AM BST 12:44 AM BST
Moon 7:30 AM BST (8/8) 8:59 PM BST (8/8)
Length of Visible Light 17h 10m
Length of Day
15h 38m
New Moon, 2% of the Moon is Illuminated
Aug 8
New Moon
Aug 14
First Quarter
Aug 21
Full
Aug 28
Last Quarter
Sep 5
New

Hourly Weather History & Observations

Time (BST) Temp. Dew Point Humidity Pressure Visibility Wind Dir Wind Speed Gust Speed Precip Events Conditions
12:50 AM 54 °F 54 °F 98% 30.07 in 12 mi NE 4.6 mph - -   Partly Cloudy
12:50 AM 53.6 °F 53.6 °F 100% 30.06 in 6.2 mi NE 4.6 mph - N/A   Scattered Clouds
1:50 AM 55.4 °F 55.4 °F 100% 30.04 in 6.2 mi ENE 4.6 mph - N/A   Scattered Clouds
2:50 AM 53.6 °F 53.6 °F 100% 30.04 in 3.7 mi WNW 2.3 mph - N/A   Partly Cloudy
3:50 AM 54 °F 53 °F 97% 30.06 in 4 mi NNE 2.3 mph - -   Mist
3:50 AM 53.6 °F 53.6 °F 100% 30.04 in 3.7 mi NNE 2.3 mph - N/A   Overcast
4:50 AM 53.6 °F 53.6 °F 100% 30.04 in 3.1 mi NNE 5.8 mph - N/A   Mostly Cloudy
5:50 AM 53.6 °F 53.6 °F 100% 30.04 in 2.8 mi NNE 3.5 mph - N/A   Mostly Cloudy
6:50 AM 55 °F 55 °F 98% 30.05 in 2 mi NNE 1.2 mph - -   Mist
6:50 AM 55.4 °F 55.4 °F 100% 30.04 in 2.5 mi NNE 1.2 mph - N/A   Mostly Cloudy
7:50 AM 55.4 °F 55.4 °F 100% 30.04 in 3.1 mi ENE 5.8 mph - N/A   Mostly Cloudy
8:50 AM 57.2 °F 55.4 °F 94% 30.04 in 5.6 mi ENE 5.8 mph - N/A   Haze
9:50 AM 61 °F 56 °F 79% 30.04 in 6 mi East 4.6 mph - -   Haze
9:50 AM 60.8 °F 55.4 °F 82% 30.04 in 6.2 mi East 4.6 mph - N/A   Mostly Cloudy
10:50 AM 60.8 °F 55.4 °F 82% 30.04 in 6.2 mi ESE 5.8 mph - N/A   Mostly Cloudy
11:50 AM 62.6 °F 55.4 °F 77% 30.01 in 6.2 mi SE 5.8 mph - N/A   Mostly Cloudy
12:50 PM 64 °F 56 °F 69% 30.02 in 22 mi SE 4.6 mph - -   Partly Cloudy
12:50 PM 64.4 °F 57.2 °F 77% 30.01 in 6.2 mi SE 4.6 mph - N/A   Mostly Cloudy
1:50 PM 64.4 °F 55.4 °F 73% 30.01 in 6.2 mi East 9.2 mph - N/A   Mostly Cloudy
2:50 PM 64.4 °F 55.4 °F 73% 29.98 in 6.2 mi ESE 9.2 mph - N/A   Mostly Cloudy
3:50 PM 64 °F 55 °F 64% 29.99 in 31 mi SE 10.4 mph - -   Mostly Cloudy
3:50 PM 64.4 °F 55.4 °F 73% 29.98 in 6.2 mi SE 10.4 mph - N/A   Mostly Cloudy
4:50 PM 64.4 °F 51.8 °F 64% 29.98 in 6.2 mi South 13.8 mph - N/A   Mostly Cloudy
5:50 PM 62.6 °F 55.4 °F 77% 29.95 in 6.2 mi SSW 10.4 mph - N/A   Mostly Cloudy
6:50 PM 62.6 °F 55.4 °F 77% 29.95 in 6.2 mi SSW 5.8 mph - N/A   Mostly Cloudy
7:50 PM 62.6 °F 55.4 °F 77% 29.95 in 6.2 mi South 4.6 mph - N/A   Mostly Cloudy
8:50 PM 60.8 °F 55.4 °F 82% 29.95 in 6.2 mi SW 2.3 mph - N/A   Mostly Cloudy
9:50 PM 59 °F 55 °F 81% 29.95 in 25 mi SSW 2.3 mph - -   Mostly Cloudy
9:50 PM 59.0 °F 55.4 °F 88% 29.95 in - SSW 2.3 mph - N/A   Clear
10:50 PM 57.2 °F 53.6 °F 88% 29.92 in - North 1.2 mph - N/A   Clear
11:50 PM 57.2 °F 51.8 °F 82% 29.92 in - SSW 2.3 mph - N/A   Clear